TimeMDT,TemperatureF,Dew PointF,Humidity,Sea Level PressureIn,VisibilityMPH,Wind Direction,Wind SpeedMPH,Gust SpeedMPH,PrecipitationIn,Events,Conditions,WindDirDegrees,DateUTC
12:53 AM,28.9,28.0,96,30.27,4.0,NNE,12.7,-,0.00,Rain,Light Freezing Rain,30,2013-10-29 06:53:00
1:02 AM,28.4,28.4,100,30.15,4.0,NE,10.4,-,0.00,,Overcast,40,2013-10-29 07:02:00
1:53 AM,28.9,28.0,96,30.27,3.0,NE,10.4,-,0.00,,Overcast,40,2013-10-29 07:53:00
2:18 AM,28.4,28.4,100,30.14,3.0,NNE,10.4,-,N/A,,Overcast,30,2013-10-29 08:18:00
2:53 AM,28.9,28.0,96,30.25,3.0,NNE,11.5,-,N/A,,Overcast,30,2013-10-29 08:53:00
3:53 AM,28.9,28.0,96,30.24,4.0,NE,9.2,-,N/A,,Overcast,40,2013-10-29 09:53:00
4:53 AM,28.9,28.9,100,30.24,4.0,NE,10.4,-,N/A,,Overcast,50,2013-10-29 10:53:00
5:53 AM,28.9,28.0,96,30.24,4.0,NE,9.2,-,N/A,,Overcast,40,2013-10-29 11:53:00
6:45 AM,28.4,28.4,100,30.10,3.0,NE,12.7,-,N/A,,Overcast,40,2013-10-29 12:45:00
6:53 AM,28.9,28.0,96,30.22,3.0,NE,11.5,-,N/A,,Overcast,50,2013-10-29 12:53:00
7:14 AM,28.4,28.4,100,30.10,2.5,NE,9.2,-,N/A,,Overcast,40,2013-10-29 13:14:00
7:32 AM,28.4,28.4,100,30.11,3.0,NE,8.1,-,N/A,,Overcast,40,2013-10-29 13:32:00
7:43 AM,28.4,28.4,100,30.11,2.0,NE,8.1,-,N/A,,Overcast,40,2013-10-29 13:43:00
7:53 AM,28.9,28.0,96,30.22,1.8,NE,9.2,-,N/A,,Overcast,40,2013-10-29 13:53:00
8:03 AM,28.4,28.4,100,30.11,2.0,NNE,8.1,-,N/A,,Overcast,30,2013-10-29 14:03:00
8:21 AM,28.4,28.4,100,30.11,1.8,NNE,6.9,-,N/A,,Overcast,20,2013-10-29 14:21:00
8:53 AM,28.9,28.0,96,30.23,1.8,NE,9.2,-,N/A,,Overcast,40,2013-10-29 14:53:00
9:05 AM,28.4,28.4,100,30.11,2.0,NE,8.1,-,N/A,,Overcast,40,2013-10-29 15:05:00
9:53 AM,28.9,28.0,96,30.22,2.5,NE,9.2,-,N/A,,Overcast,50,2013-10-29 15:53:00
10:00 AM,28.4,28.4,100,30.09,3.0,NE,6.9,-,N/A,,Overcast,50,2013-10-29 16:00:00
10:39 AM,28.4,28.4,100,30.08,8.0,ENE,6.9,-,N/A,,Overcast,60,2013-10-29 16:39:00
10:53 AM,28.9,28.0,96,30.20,8.0,NE,6.9,-,N/A,,Overcast,50,2013-10-29 16:53:00
11:53 AM,30.0,28.9,96,30.19,7.0,NE,5.8,-,N/A,,Overcast,50,2013-10-29 17:53:00
12:53 PM,30.0,28.9,96,30.16,8.0,NE,6.9,-,N/A,,Overcast,40,2013-10-29 18:53:00
1:53 PM,30.0,28.9,96,30.14,7.0,NNE,4.6,-,N/A,,Overcast,30,2013-10-29 19:53:00
2:53 PM,30.9,28.9,92,30.14,3.0,NNE,4.6,-,N/A,,Overcast,30,2013-10-29 20:53:00
3:53 PM,30.9,30.0,96,30.14,7.0,ENE,4.6,-,N/A,,Overcast,60,2013-10-29 21:53:00
4:53 PM,30.9,28.9,92,30.11,10.0,East,5.8,-,N/A,,Overcast,90,2013-10-29 22:53:00
5:53 PM,30.9,30.0,96,30.10,10.0,East,3.5,-,N/A,,Overcast,90,2013-10-29 23:53:00
6:53 PM,32.0,30.0,92,30.11,10.0,Calm,Calm,-,N/A,,Overcast,0,2013-10-30 00:53:00
7:08 PM,32.0,30.2,93,30.00,10.0,NE,3.5,-,N/A,,Overcast,40,2013-10-30 01:08:00
7:53 PM,30.9,30.0,96,30.14,10.0,NNE,5.8,-,N/A,,Overcast,20,2013-10-30 01:53:00
8:29 PM,32.0,30.2,93,30.04,10.0,NNE,3.5,-,N/A,,Overcast,20,2013-10-30 02:29:00
8:42 PM,30.2,30.2,100,30.05,10.0,Calm,Calm,-,N/A,,Overcast,0,2013-10-30 02:42:00
8:53 PM,30.9,30.0,96,30.16,10.0,Calm,Calm,-,N/A,,Overcast,0,2013-10-30 02:53:00
9:10 PM,30.2,30.2,100,30.04,10.0,NNE,3.5,-,N/A,,Overcast,30,2013-10-30 03:10:00
9:28 PM,30.2,30.2,100,30.03,10.0,NE,6.9,-,N/A,,Overcast,50,2013-10-30 03:28:00
9:53 PM,30.9,30.0,96,30.15,10.0,ENE,5.8,-,N/A,,Overcast,70,2013-10-30 03:53:00
10:53 PM,30.9,30.0,96,30.11,9.0,ENE,4.6,-,N/A,,Overcast,60,2013-10-30 04:53:00
11:20 PM,30.2,30.2,100,29.99,9.0,ENE,3.5,-,N/A,,Overcast,70,2013-10-30 05:20:00
11:53 PM,30.9,30.0,96,30.08,8.0,Calm,Calm,-,N/A,,Overcast,0,2013-10-30 05:53:00